GW1374 Weather Reports


Display with metric or nautical units.
time (UTC)temp
F
wind
direction
speed
MPH
gust
MPH
rain 1hr
in
rain 24hr
in
rain mn
in
humidity
%
barometer
mb
20260905123052 59 83 0.0 3.0 0.00 0.00 0.00 96 1013.8
20260905121549 59 0 0.0 2.0 0.00 0.00 0.00 96 1013.7
20260905120054 58 178 0.0 2.0 0.00 0.00 0.00 96 1013.5
20260905114553 58 0 0.0 1.0 0.00 0.00 0.00 96 1013.0
20260905113052 58 0 0.0 2.0 0.00 0.00 0.00 96 1013.0
20260905111557 58 0 0.0 2.0 0.00 0.00 0.00 96 1013.0
20260905110107 58 0 0.0 2.0 0.00 0.00 0.00 95 1012.9
20260905104554 58 0 0.0 2.0 0.00 0.00 0.00 95 1012.6
20260905103053 58 9 0.0 1.0 0.00 0.00 0.00 95 1012.5
20260905101609 59 0 0.0 1.0 0.00 0.00 0.00 95 1012.2
20260905100052 59 0 0.0 2.0 0.00 0.00 0.00 95 1012.1
20260905094549 59 0 0.0 2.0 0.00 0.00 0.00 94 1011.9
20260905093120 59 0 0.0 3.0 0.00 0.00 0.00 94 1012.1
20260905091603 59 0 0.0 3.0 0.00 0.00 0.00 94 1011.9
20260905090052 60 0 0.0 3.0 0.00 0.00 0.00 94 1012.1
20260905084602 60 0 0.0 2.0 0.00 0.00 0.00 94 1012.0
20260905083054 60 0 0.0 3.0 0.00 0.00 0.00 94 1012.1
20260905081553 60 309 1.0 3.0 0.00 0.00 0.00 93 1012.1
20260905080100 60 0 0.0 7.0 0.00 0.00 0.00 93 1012.2
20260905074550 60 0 1.0 4.0 0.00 0.00 0.00 93 1012.3
20260905073054 61 341 1.0 2.0 0.00 0.00 0.00 93 1012.3
20260905071553 61 291 0.0 2.0 0.00 0.00 0.00 92 1012.5
20260905070055 61 0 0.0 3.0 0.00 0.00 0.00 93 1012.4
20260905064550 61 325 1.0 6.0 0.00 0.01 0.00 92 1012.7
20260905063058 61 346 0.0 5.0 0.00 0.01 0.00 92 1012.6
20260905061553 61 309 0.0 3.0 0.00 0.01 0.00 92 1012.9
20260905054558 60 325 1.0 2.0 0.00 0.01 0.00 91 1013.0
20260905053054 61 325 0.0 2.0 0.00 0.01 0.00 89 1013.3
20260905051553 61 334 0.0 2.0 0.00 0.01 0.00 88 1013.3
20260905044604 62 93 0.0 2.0 0.00 0.14 0.00 85 1013.2
20260905043055 62 291 0.0 3.0 0.00 0.14 0.00 85 1013.5
20260905041553 62 319 0.0 3.0 0.00 0.14 0.00 85 1013.5
20260905040103 63 325 0.0 2.0 0.00 0.14 0.00 84 1013.5
20260905034600 63 22 0.0 2.0 0.00 0.37 0.14 84 1013.5
20260905033054 63 34 0.0 2.0 0.00 0.37 0.14 82 1013.5
20260905031554 63 9 0.0 2.0 0.00 0.37 0.14 82 1013.5
20260905030104 64 309 0.0 2.0 0.00 0.37 0.14 81 1013.2
20260905024601 64 0 0.0 2.0 0.00 0.37 0.14 81 1013.4
20260905023052 65 325 0.0 2.0 0.00 0.37 0.14 82 1013.2
20260905021552 65 0 0.0 2.0 0.00 0.37 0.14 79 1013.4
20260905020058 65 9 0.0 3.0 0.00 0.37 0.14 80 1013.4
20260905014558 65 22 0.0 3.0 0.00 0.37 0.14 81 1013.7
20260905013059 65 9 0.0 2.0 0.00 0.37 0.14 82 1013.8
20260905011551 66 16 0.0 2.0 0.00 0.37 0.14 83 1013.8
20260905010058 66 0 0.0 2.0 0.00 0.37 0.14 82 1013.5
20260905004619 66 26 0.0 2.0 0.00 0.37 0.14 83 1013.6
20260905003055 67 0 0.0 2.0 0.00 0.37 0.14 82 1013.5
20260905001546 67 0 0.0 2.0 0.00 0.37 0.14 81 1013.3
20260905000054 67 51 1.0 3.0 0.00 0.37 0.14 80 1013.2
20260904234553 67 319 0.0 4.0 0.00 0.37 0.14 81 1013.1
20260904233100 67 26 0.0 4.0 0.00 0.37 0.14 81 1013.0
20260904231559 68 9 0.0 3.0 0.00 0.37 0.14 81 1013.2
20260904230122 68 309 0.0 2.0 0.00 0.37 0.14 80 1013.1
20260904224552 69 0 0.0 2.0 0.00 0.37 0.14 79 1013.0
20260904223051 69 265 0.0 2.0 0.00 0.37 0.14 79 1013.0
20260904221548 70 0 0.0 3.0 0.00 0.37 0.14 77 1012.9
20260904220058 70 338 1.0 6.0 0.00 0.37 0.14 75 1012.7
20260904214550 71 22 1.0 7.0 0.00 0.37 0.14 74 1012.8
20260904213051 70 325 1.0 3.0 0.00 0.37 0.14 76 1012.7
20260904211557 71 9 0.0 4.0 0.00 0.37 0.14 73 1012.9
20260904210051 72 19 1.0 9.0 0.00 0.37 0.14 69 1012.9
20260904204552 72 38 1.0 5.0 0.00 0.37 0.14 71 1013.1
20260904203056 72 31 1.0 5.0 0.00 0.37 0.14 72 1013.1
20260904201553 72 153 1.0 7.0 0.00 0.37 0.14 70 1013.3
20260904200051 72 137 1.0 3.0 0.00 0.37 0.14 73 1013.5
20260904194607 72 0 1.0 3.0 0.00 0.37 0.14 73 1013.5
20260904193053 72 32 1.0 4.0 0.00 0.37 0.14 71 1013.7
20260904191551 72 119 1.0 5.0 0.00 0.37 0.14 72 1013.8
20260904190055 72 291 1.0 5.0 0.00 0.37 0.14 70 1013.8
20260904184556 71 0 1.0 4.0 0.00 0.37 0.14 74 1014.0
20260904183111 71 309 0.0 4.0 0.00 0.37 0.14 77 1014.0
20260904181602 72 67 0.0 3.0 0.00 0.37 0.14 77 1014.2
20260904180056 72 286 1.0 5.0 0.00 0.37 0.14 77 1014.2
20260904174554 71 309 1.0 4.0 0.00 0.37 0.14 76 1014.5
20260904173104 71 137 1.0 3.0 0.00 0.37 0.14 75 1014.6
20260904171556 71 137 1.0 4.0 0.00 0.37 0.14 75 1014.7
20260904170056 71 0 1.0 4.0 0.00 0.37 0.14 73 1014.5
20260904164552 71 309 1.0 5.0 0.00 0.37 0.14 76 1014.7
20260904163046 71 32 2.0 7.0 0.00 0.37 0.14 76 1014.6
20260904161554 70 9 1.0 5.0 0.00 0.37 0.14 78 1014.7
20260904160104 70 319 1.0 5.0 0.00 0.37 0.14 77 1014.6
20260904154551 70 334 2.0 5.0 0.00 0.37 0.14 80 1014.5
20260904153101 69 51 1.0 3.0 0.00 0.37 0.14 85 1014.7
20260904151554 68 265 1.0 3.0 0.00 0.37 0.14 88 1014.8
20260904150104 68 265 1.0 8.0 0.00 0.37 0.14 86 1014.8
20260904144552 67 298 0.0 6.0 0.00 0.37 0.14 89 1014.9
20260904143058 67 93 1.0 4.0 0.00 0.37 0.14 92 1014.9
20260904141557 66 265 1.0 3.0 0.00 0.37 0.14 93 1014.8
20260904140104 65 51 1.0 4.0 0.00 0.37 0.14 95 1015.0
20260904134600 64 334 0.0 3.0 0.00 0.37 0.14 96 1014.7
20260904133100 64 51 0.0 3.0 0.00 0.37 0.14 97 1014.7
20260904131552 63 59 1.0 3.0 0.00 0.37 0.14 96 1014.5
20260904124602 63 292 0.0 3.0 0.00 0.37 0.14 97 1014.8